Augusta, GA

1:13 PM EST on November 20, 2017 (GMT -0500)
Daniel

Weather History for KDNL - January, 2013

Change the Weather History Date:

Friday, January 25, 2013

  Actual Average Record
Temperature  
Mean Temperature 35 °F -  
Max Temperature 40 °F 53 °F 75 °F (2017)
Min Temperature 29 °F 36 °F 21 °F (2014)
Degree Days  
Heating Degree Days 30    
Month to date heating degree days 296  
Moisture  
Dew Point 15 °F    
Average Humidity 45    
Maximum Humidity 52    
Minimum Humidity 32    
Precipitation  
Precipitation 0.00 in - - ()
Month to date precipitation 0.44  
Year to date precipitation 0.44  
Sea Level Pressure  
Sea Level Pressure 30.31 in    
Wind  
Wind Speed 4 mph (East)    
Max Wind Speed 15 mph    
Max Gust Speed 21 mph    
Visibility 10 miles    
Events      
Averages and records for this station are not official NWS values.
T = Trace of Precipitation, MM = Missing Value Source: NWS Daily Summary

Daily Weather History Graph

Daily Weather History Graph

Search for Another Location

Airport or City:

Trip Planner

Search our weather history database for the weather conditions in past years. The results will help you decide how hot, cold, wet, or windy it might be!

Date:

Astronomy

Jan. 25, 2013 Rise Set
Actual Time 7:28 AM EST 5:53 PM EST
Civil Twilight 7:01 AM EST 6:19 PM EST
Nautical Twilight 6:31 AM EST 6:49 PM EST
Astronomical Twilight 6:02 AM EST 7:19 PM EST
Moon 4:49 PM EST (1/25) 6:06 AM EST (1/25)
Length of Visible Light 11h 17m
Length of Day
10h 24m
Waxing Gibbous, 98% of the Moon is Illuminated
Jan 25
Waxing Gibbous
Jan 26
Full
Feb 3
Last Quarter
Feb 10
New
Feb 17
First Quarter

Hourly Weather History & Observations

Time (EST) Temp. Windchill Dew Point Humidity Pressure Visibility Wind Dir Wind Speed Gust Speed Precip Events Conditions
12:53 AM 34.0 °F 26.6 °F 8.1 °F 34% 30.45 in 10.0 mi ENE 9.2 mph - N/A   Clear
1:53 AM 32.0 °F 23.6 °F 7.0 °F 35% 30.46 in 10.0 mi ENE 10.4 mph - N/A   Clear
2:53 AM 30.9 °F 22.8 °F 8.1 °F 38% 30.46 in 10.0 mi ENE 9.2 mph - N/A   Clear
3:53 AM 30.0 °F 22.4 °F 8.1 °F 40% 30.44 in 10.0 mi ENE 8.1 mph - N/A   Clear
4:53 AM 30.0 °F 23.2 °F 9.0 °F 41% 30.44 in 10.0 mi NE 6.9 mph - N/A   Partly Cloudy
5:53 AM 28.9 °F 21.9 °F 10.0 °F 45% 30.43 in 10.0 mi East 6.9 mph - N/A   Partly Cloudy
6:53 AM 28.9 °F 21.9 °F 9.0 °F 43% 30.42 in 10.0 mi ENE 6.9 mph - N/A   Mostly Cloudy
7:24 AM 28.4 °F 22.2 °F 8.6 °F 43% 30.44 in 10.0 mi NNE 5.8 mph - N/A   Mostly Cloudy
7:53 AM 28.9 °F 21.9 °F 8.1 °F 41% 30.43 in 10.0 mi ENE 6.9 mph - N/A   Overcast
8:53 AM 30.0 °F 23.2 °F 9.0 °F 41% 30.42 in 10.0 mi NE 6.9 mph - N/A   Overcast
9:53 AM 30.9 °F 25.2 °F 10.0 °F 42% 30.42 in 10.0 mi NE 5.8 mph - N/A   Overcast
10:53 AM 32.0 °F 24.8 °F 12.0 °F 44% 30.38 in 10.0 mi East 8.1 mph - N/A   Overcast
11:53 AM 33.1 °F - 12.9 °F 43% 30.35 in 10.0 mi Calm Calm - N/A   Overcast
12:53 PM 33.1 °F - 15.1 °F 48% 30.32 in 10.0 mi Calm Calm - N/A   Overcast
1:53 PM 34.0 °F - 15.1 °F 46% 30.27 in 10.0 mi Calm Calm - N/A   Overcast
2:30 PM 35.6 °F - 17.6 °F 48% 30.24 in 10.0 mi Calm Calm - N/A   Mostly Cloudy
2:53 PM 35.1 °F 31.0 °F 17.1 °F 48% 30.25 in 10.0 mi South 4.6 mph - N/A   Scattered Clouds
3:06 PM 35.6 °F 31.7 °F 17.6 °F 48% 30.24 in 10.0 mi SW 4.6 mph - N/A   Mostly Cloudy
3:53 PM 36.0 °F 33.3 °F 18.0 °F 48% 30.24 in 10.0 mi Variable 3.5 mph - N/A   Overcast
4:53 PM 37.0 °F - 19.0 °F 48% 30.22 in 10.0 mi Calm Calm - N/A   Overcast
5:32 PM 37.4 °F 34.9 °F 19.4 °F 48% 30.19 in 10.0 mi South 3.5 mph - N/A   Overcast
5:53 PM 37.0 °F - 19.9 °F 50% 30.21 in 10.0 mi Calm Calm - N/A   Overcast
6:53 PM 37.9 °F - 21.0 °F 51% 30.20 in 10.0 mi Calm Calm - N/A   Overcast
7:53 PM 37.9 °F 35.5 °F 21.0 °F 51% 30.18 in 10.0 mi SSE 3.5 mph - N/A   Overcast
8:53 PM 39.0 °F 36.8 °F 21.9 °F 50% 30.17 in 10.0 mi South 3.5 mph - N/A   Overcast
9:53 PM 39.0 °F - 23.0 °F 53% 30.17 in 10.0 mi Calm Calm - N/A   Overcast
10:53 PM 39.0 °F - 23.0 °F 53% 30.16 in 10.0 mi Calm Calm - N/A   Overcast
11:53 PM 39.9 °F - 24.1 °F 53% 30.16 in 10.0 mi Calm Calm - N/A   Overcast